Regional Weather Roundup
Issued by NWS

Home | Current Version | Previous Version | Graphics & Text | Print | Product List | Glossary On
Versions: 1 2 3 4 5 6 7 8 9 10 11 12 13 14 15 16 17 18 19 20 21 22 23 24 25 26 27 28 29 30 31 32 33 34 35 36 37 38 39 40 41 42 43 44 45 46 47 48 49 50
000
ASUS45 KSLC 220810
RWRUT

UTAH REGIONAL WEATHER ROUNDUP
NATIONAL WEATHER SERVICE SALT LAKE CITY UT
100 AM MST WED FEB 22 2017

UTZ001>011-023>025-220900-

NORTHERN UTAH

CITY           SKY/WX    TMP DP  RH WIND       PRES   REMARKS
BRIGHAM CITY     N/A     37  33  88 S7        30.08S WCI  31
HILL AFB       LGT SNOW  32  32 100 S10       30.05F FOG     WCI  24
LOGAN          CLOUDY    36  34  92 N5        30.05R WCI  32
OGDEN          MIX PCPN  34  33  96 S8        30.06F WCI  27
SALT LAKE CITY LGT RAIN  37  35  92 S8        30.08S WCI  31
TOOELE VALLEY  DRIZZLE   34  32  93 SE13      30.08F WCI  25
WENDOVER       CLOUDY    37  27  65 CALM      30.07S
HEBER CITY     LGT SNOW  32  30  93 E3        30.03S VSB 1
WEST JORDAN    CLOUDY    37  37 100 S3        30.09S

$$

UTZ011>015-024>027-220900-

CENTRAL/NORTHEAST UTAH

CITY           SKY/WX    TMP DP  RH WIND       PRES   REMARKS
PROVO AIRPORT  LGT SNOW  33  32  96 NW9       30.11R FOG     WCI  25
MOAB/CANYONLAN PTCLDY    47  35  63 SW13      29.99F
DELTA          CLOUDY    36  32  87 N10       30.04F WCI  28
PRICE          MOCLDY    37  29  72 NE5       29.98S WCI  33
RICHFIELD      MOCLDY    50  28  43 SW14G23   30.05S
ROOSEVELT      CLOUDY    43  34  70 W12G21    29.97F
VERNAL         CLOUDY    44  32  62 W10       29.95S

$$

UTZ013>016-019>022-027-220900-

SOUTHERN UTAH

CITY           SKY/WX    TMP DP  RH WIND       PRES   REMARKS
BRYCE CANYON   MOCLDY    36  27  69 SW16      30.13F WCI  26
CEDAR CITY     MOCLDY    46  31  55 SW15G23   30.05S
MILFORD        MOCLDY    44  37  76 S15       30.05S
ST GEORGE      CLOUDY    57  42  57 S10       30.07F
HANKSVILLE     PTCLDY    54  32  43 SW14G26   30.03S
KANAB          MOCLDY    48  39  71 S7        30.16F
BLANDING       MOCLDY    43  37  79 S6        30.19S

$$

REGIONAL REPORTS     COLORADO/ARIZONA

CITY           SKY/WX    TMP DP  RH WIND       PRES   REMARKS
CRAIG, CO      CLOUDY    34  26  72 W8        30.01R WCI  27
GRAND JUNCTION CLOUDY    50  34  54 S3        29.99F
RIFLE, CO      CLOUDY    47  31  53 W12       29.97F
MONTROSE, CO   CLOUDY    52  30  43 SW17G26   30.04F
CORTEZ, CO     CLOUDY    44  38  79 S10       30.16F
COLORADO CITY    N/A     43  39  87 E3        30.15F
PAGE, AZ       PTCLDY    52  33  48 SE3       30.08F
GRAND CANYON   NOT AVBL
KINGMAN, AZ    PTCLDY    52  39  61 CALM      30.13F
FLAGSTAFF, AZ  CLOUDY    42  41  96 SW9       30.25F

$$

REGIONAL REPORTS    NEVADA/IDAHO/WYOMING

CITY           SKY/WX    TMP DP  RH WIND       PRES   REMARKS
LAS VEGAS, NV  MOCLDY    61  38  42 S12G20    30.02F
ELY, NY        LGT SNOW  32  31  96 CALM      30.04S VSB 1
ELKO, NV       CLOUDY    33  27  78 NE6       30.08S WCI  28
POCATELLO, ID  PTCLDY    36  27  69 SW21      30.01F WCI  25
BURLEY, ID     CLOUDY    36  27  69 SW9       30.04R WCI  29
FORT BRIDGER,  LGT SNOW  28  28 100 W10       30.05F WCI  19
EVANSTON, WY   LGT SNOW  27  24  89 S3        30.02S VSB 3/4
ROCK SPRINGS,  LGT SNOW  28  25  88 W16       30.01R FOG     WCI  16
KEMMERER, WY   LGT SNOW  27  25  93 SW9       30.00S WCI  17

$$



USA.gov is the U.S. government's official web portal to all federal, state and local government web resources and services.